Location: Bothwell
(42.3833°S, 147.0000°E)
Time: 05:41:41
(UTC+10:00)

AO-85 - Visible Passes

Search period start: 25 September 2022 00:00
Search period end: 05 October 2022 01:00
Orbit: 508 x 765 km, 64.8° (Epoch: 20 September)

Date Brightness Start Highest point End Pass type
(mag) Time Alt. Az. Time Alt. Az. Time Alt. Az.
25 Sep ? 05:04:39 10° S 05:07:56 17° SE 05:11:19 10° ESE visible
26 Sep ? 05:26:51 10° SSW 05:31:16 29° SE 05:35:51 10° ENE visible
27 Sep ? 04:10:51 10° S 04:13:03 13° SSE 04:15:18 10° ESE visible
28 Sep ? 04:32:40 10° S 04:36:31 21° SE 04:40:29 10° E visible
29 Sep ? 04:55:01 10° SSW 04:59:45 38° SE 05:04:40 10° ENE visible
30 Sep ? 03:38:38 10° S 03:41:40 16° SE 03:44:47 10° ESE visible
01 Oct ? 04:00:44 10° SSW 04:05:02 27° SE 04:09:28 10° ENE visible
01 Oct ? 19:54:19 10° N 19:57:10 35° NNE 19:57:10 35° NNE visible
01 Oct ? 21:42:04 11° S 21:42:04 11° S 21:42:22 10° SSE visible
02 Oct ? 03:44:56 10° S 03:46:44 12° SSE 03:48:33 10° SE visible
02 Oct ? 05:23:11 10° SSW 05:28:10 50° SE 05:33:19 10° NE visible
02 Oct ? 21:16:47 10° NW 21:20:55 78° SW 21:25:25 10° SSE visible
02 Oct ? 22:59:50 10° WSW 23:02:04 13° SW 23:04:21 10° S visible
03 Oct ? 04:06:33 10° S 04:10:13 20° SE 04:13:59 10° E visible
03 Oct ? 05:45:57 10° SW 05:51:06 83° WNW 05:56:27 10° NNE visible
03 Oct ? 20:00:27 10° NNE 20:03:49 25° ENE 20:07:26 10° ESE visible
03 Oct ? 21:40:02 10° WNW 21:43:54 35° SW 21:48:05 10° SSE visible
04 Oct ? 04:28:50 10° SSW 04:33:29 34° SE 04:38:17 10° ENE visible
04 Oct ? 06:09:03 10° SW 06:13:51 39° WNW 06:18:46 10° N visible
04 Oct ? 20:22:20 10° NNW 20:26:23 62° ENE 20:30:49 10° SE visible
04 Oct ? 22:04:04 10° W 22:07:09 19° SW 22:10:24 10° S visible
